TimeCDT,TemperatureF,Dew PointF,Humidity,Sea Level PressureIn,VisibilityMPH,Wind Direction,Wind SpeedMPH,Gust SpeedMPH,PrecipitationIn,Events,Conditions,WindDirDegrees,DateUTC
12:03 AM,71.6,69.8,94,29.98,8.0,NE,3.5,-,N/A,,Mostly Cloudy,40,2013-06-19 05:03:00
12:53 AM,71.1,69.1,93,29.98,10.0,NE,3.5,-,N/A,,Overcast,50,2013-06-19 05:53:00
1:53 AM,70.0,69.1,97,29.97,10.0,NE,3.5,-,N/A,,Mostly Cloudy,40,2013-06-19 06:53:00
2:53 AM,71.1,69.1,93,29.96,10.0,Calm,Calm,-,N/A,,Overcast,0,2013-06-19 07:53:00
3:36 AM,69.8,68.0,94,29.96,9.0,Calm,Calm,-,N/A,,Scattered Clouds,0,2013-06-19 08:36:00
3:53 AM,70.0,68.0,93,29.96,10.0,Calm,Calm,-,N/A,,Partly Cloudy,0,2013-06-19 08:53:00
4:31 AM,68.0,66.2,94,29.97,2.5,Calm,Calm,-,N/A,,Clear,0,2013-06-19 09:31:00
4:38 AM,68.0,66.2,94,29.97,4.0,Calm,Calm,-,N/A,,Clear,0,2013-06-19 09:38:00
4:53 AM,68.0,66.9,96,29.97,1.8,Calm,Calm,-,N/A,,Clear,0,2013-06-19 09:53:00
5:02 AM,68.0,66.2,94,29.98,3.0,Calm,Calm,-,N/A,,Clear,0,2013-06-19 10:02:00
5:53 AM,69.1,66.9,93,29.98,7.0,Calm,Calm,-,N/A,,Overcast,0,2013-06-19 10:53:00
6:23 AM,69.8,68.0,94,29.99,3.0,Calm,Calm,-,N/A,,Scattered Clouds,0,2013-06-19 11:23:00
6:32 AM,69.8,68.0,94,30.00,4.0,Calm,Calm,-,N/A,,Mostly Cloudy,0,2013-06-19 11:32:00
6:53 AM,69.1,69.1,100,30.00,0.5,Calm,Calm,-,N/A,Fog,Fog,0,2013-06-19 11:53:00
7:53 AM,70.0,69.1,97,30.02,0.8,NE,4.6,-,N/A,,Mist,50,2013-06-19 12:53:00
8:04 AM,69.8,69.8,100,30.03,2.0,ENE,3.5,-,N/A,,Overcast,60,2013-06-19 13:04:00
8:13 AM,69.8,69.8,100,30.02,3.0,East,3.5,-,N/A,,Overcast,100,2013-06-19 13:13:00
8:53 AM,72.0,70.0,93,30.03,7.0,Variable,3.5,-,N/A,,Overcast,0,2013-06-19 13:53:00
9:43 AM,75.2,69.8,83,30.03,10.0,NNE,4.6,-,0.01,,Overcast,30,2013-06-19 14:43:00
9:53 AM,75.9,70.0,82,30.03,10.0,East,5.8,-,0.01,,Mostly Cloudy,90,2013-06-19 14:53:00
10:53 AM,79.0,69.1,72,30.03,10.0,East,4.6,-,N/A,,Scattered Clouds,90,2013-06-19 15:53:00
11:53 AM,82.0,70.0,67,30.03,10.0,Calm,Calm,-,N/A,,Clear,0,2013-06-19 16:53:00
12:53 PM,82.9,69.1,63,30.01,10.0,SSE,6.9,-,N/A,,Mostly Cloudy,160,2013-06-19 17:53:00
1:53 PM,84.9,69.1,59,30.00,10.0,ESE,3.5,-,N/A,,Mostly Cloudy,110,2013-06-19 18:53:00
2:53 PM,84.9,69.1,59,30.00,10.0,Calm,Calm,-,N/A,,Scattered Clouds,0,2013-06-19 19:53:00
3:53 PM,84.9,70.0,61,29.98,10.0,Variable,3.5,-,N/A,,Scattered Clouds,0,2013-06-19 20:53:00
4:53 PM,88.0,69.1,53,29.96,10.0,East,5.8,-,N/A,,Clear,90,2013-06-19 21:53:00
5:53 PM,87.1,68.0,53,29.95,10.0,SE,5.8,-,N/A,,Clear,140,2013-06-19 22:53:00
6:04 PM,87.8,66.2,49,29.96,10.0,ESE,4.6,-,N/A,,Partly Cloudy,120,2013-06-19 23:04:00
6:53 PM,86.0,66.9,53,29.95,10.0,SE,5.8,-,N/A,,Clear,140,2013-06-19 23:53:00
7:53 PM,84.0,69.1,61,29.97,10.0,ESE,4.6,-,N/A,,Clear,120,2013-06-20 00:53:00
8:53 PM,79.0,70.0,74,29.96,10.0,SE,5.8,-,N/A,,Clear,130,2013-06-20 01:53:00
9:53 PM,80.1,69.1,69,29.98,10.0,SE,4.6,-,N/A,,Clear,140,2013-06-20 02:53:00
10:53 PM,75.9,70.0,82,30.00,10.0,Calm,Calm,-,N/A,,Clear,0,2013-06-20 03:53:00
11:53 PM,78.1,70.0,76,30.01,10.0,Calm,Calm,-,N/A,,Clear,0,2013-06-20 04:53:00